TimePDT,TemperatureF,Dew PointF,Humidity,Sea Level PressureIn,VisibilityMPH,Wind Direction,Wind SpeedMPH,Gust SpeedMPH,PrecipitationIn,Events,Conditions,WindDirDegrees,DateUTC
12:53 AM,73.0,36.0,26,29.90,10.0,WSW,9.2,-,N/A,,Clear,240,2013-07-04 07:53:00
1:53 AM,72.0,33.1,24,29.91,10.0,WSW,9.2,-,N/A,,Clear,240,2013-07-04 08:53:00
2:53 AM,69.1,27.0,21,29.92,10.0,WSW,5.8,-,N/A,,Clear,240,2013-07-04 09:53:00
3:53 AM,66.0,25.0,21,29.91,10.0,Variable,5.8,-,N/A,,Clear,0,2013-07-04 10:53:00
4:53 AM,66.0,26.1,22,29.89,10.0,Calm,Calm,-,N/A,,Clear,0,2013-07-04 11:53:00
5:53 AM,64.9,30.0,27,29.91,10.0,SSE,5.8,-,N/A,,Clear,160,2013-07-04 12:53:00
6:53 AM,70.0,30.9,24,29.91,10.0,SSW,5.8,-,N/A,,Clear,210,2013-07-04 13:53:00
7:53 AM,73.9,28.9,19,29.91,10.0,West,15.0,-,N/A,,Clear,260,2013-07-04 14:53:00
8:53 AM,75.9,32.0,20,29.92,10.0,West,15.0,23.0,N/A,,Clear,270,2013-07-04 15:53:00
9:53 AM,78.1,26.1,15,29.91,10.0,West,15.0,25.3,N/A,,Clear,270,2013-07-04 16:53:00
10:53 AM,82.0,26.1,13,29.90,10.0,West,13.8,24.2,N/A,,Clear,270,2013-07-04 17:53:00
11:53 AM,82.9,27.0,13,29.89,10.0,WSW,13.8,25.3,N/A,,Clear,250,2013-07-04 18:53:00
12:53 PM,84.9,35.1,17,29.88,10.0,West,19.6,27.6,N/A,,Clear,260,2013-07-04 19:53:00
1:53 PM,88.0,36.0,16,29.86,10.0,West,20.7,26.5,N/A,,Clear,270,2013-07-04 20:53:00
2:53 PM,87.1,37.0,17,29.84,10.0,West,8.1,19.6,N/A,,Clear,260,2013-07-04 21:53:00
3:53 PM,88.0,36.0,16,29.81,10.0,WSW,8.1,20.7,N/A,,Clear,250,2013-07-04 22:53:00
4:53 PM,89.1,37.0,16,29.80,10.0,NNW,12.7,-,N/A,,Clear,340,2013-07-04 23:53:00
5:53 PM,88.0,37.9,17,29.78,10.0,WNW,13.8,23.0,N/A,,Clear,290,2013-07-05 00:53:00
6:53 PM,86.0,37.9,18,29.78,10.0,WNW,13.8,-,N/A,,Clear,290,2013-07-05 01:53:00
7:53 PM,81.0,44.1,27,29.78,10.0,WNW,15.0,-,N/A,,Clear,290,2013-07-05 02:53:00
8:53 PM,73.9,45.0,35,29.79,10.0,West,10.4,-,N/A,,Clear,280,2013-07-05 03:53:00
9:53 PM,71.1,45.0,39,29.80,10.0,West,10.4,-,N/A,,Clear,270,2013-07-05 04:53:00
10:53 PM,69.1,46.0,44,29.82,10.0,SW,11.5,-,N/A,,Clear,220,2013-07-05 05:53:00
11:53 PM,66.9,46.0,47,29.84,10.0,WSW,10.4,-,N/A,,Clear,240,2013-07-05 06:53:00